AirNav   Everest Fuels
 
 1493 users online  

WN40 Coupeville Airpark
Coupeville, Washington, USA

GOING TO COUPEVILLE?


FAA INFORMATION EFFECTIVE 25 FEBRUARY 2021

Location

FAA Identifier: WN40
Lat/Long: 48-11-25.3510N 122-38-34.5970W
48-11.422517N 122-38.576617W
48.1903753,-122.6429436
(estimated)
Elevation: 200 ft. / 61 m (estimated)
Variation: 21E (1985)
From city: 3 miles S of COUPEVILLE, WA
Time zone: UTC -8 (UTC -7 during Daylight Saving Time)
Zip code: 98239

Airport Operations

Airport use: Private use. Permission required prior to landing
Activation date: 11/1983
Control tower: no
ARTCC: SEATTLE CENTER
FSS: SEATTLE FLIGHT SERVICE STATION
Attendance: UNATNDD
Wind indicator: yes
Segmented circle: no

Airport Communications

WX AWOS-3 at OKH (4 nm N): 132.775 (360-675-8431)
WX AWOS-3P at 0S9 (11 nm SW): 119.025 (360-379-1199)
WX AWOS-3 at BVS (19 nm NE): 121.125 (360-757-7767)
WX AWOS-3PT at AWO (19 nm E): 135.625 (360-435-8045)

Nearby radio navigation aids

VOR radial/distance  VOR name  Freq  Var
CVVr116/4.6PENN COVE VOR/DME117.2019E
PAEr298/21.9PAINE VOR/DME110.6020E

 
NDB name  Hdg/Dist  Freq  Var  ID
SKAGIT/BAY VIEW192/18.924016EBVS -... ...- ...
FRIDAY HARBOR125/24.628417EFHR ..-. .... .-.
EDIZ HOOK067/30.633817ENOW -. --- .--

Airport Services

Runway Information

Runway 6/24

Dimensions: 2500 x 80 ft. / 762 x 24 m
Surface: turf
RUNWAY 6  RUNWAY 24
Traffic pattern: leftleft
Obstructions: 100 ft. trees, 400 ft. from runwaynone

Airport Ownership and Management from official FAA records

Ownership: Privately-owned
Owner: ERNEST H. YOUDERIAN
585W-500SO
COUPEVILLE, WA 98239
Phone 206-678-4147
Manager: ERNEST H. YOUDERIAN
585W-500SO
COUPEVILLE, WA 98239
Phone 206-678-4147

Airport Operational Statistics

Aircraft based on the field: 7
Single engine airplanes: 7
    

Additional Remarks

CTC WHIDBEY NAS ON 127.9 OR APCH CTL 118.2 OR ATIS ON 134.15. FOR ARPT TFC AREA HOT OR COLD JET TFC ON DLNG & TKOF.
AIRPARK APPROVED FOR PERSONAL USE ONLY.
FOR CD CTC SEATTLE ARTCC AT 253-351-3694.

Instrument Procedures

There are no published instrument procedures at WN40.

Some nearby airports with instrument procedures:

KOKH - AJ Eisenberg Airport (4 nm N)
KNUW - Whidbey Island Naval Air Station (Ault Field) (10 nm N)
0S9 - Jefferson County International Airport (11 nm SW)
KBVS - Skagit Regional Airport (19 nm NE)
KAWO - Arlington Municipal Airport (19 nm E)
 
Loc | Ops | Rwys | IFR | FBO | Links
Com | Nav | Svcs | Stats | Notes
Area around WN40 (Coupeville Airpark)
 
Road maps at: MapQuest Bing Google
 
Aerial photo
No photo
 
Sectional chart

 
Airport distance calculator
Flying to Coupeville Airpark? Find the distance to fly.

From to WN40

Sunrise and sunset
Times for 08-Mar-2021
 Local
(UTC-8)
 Zulu
(UTC)
Morning civil twilight06:0814:08
Sunrise06:3914:39
Sunset18:0402:04
Evening civil twilight18:3502:35

Current date and time
Zulu (UTC)  08-Mar-2021 15:39:12
Local (UTC-8)  08-Mar-2021 07:39:12
 
METAR
KNUW 
10nm N 
081456Z 08008KT 10SM SCT050 BKN230 03/M01 A3007 RMK AO2 SLP183 T00281006 58016 VISNO
K0S9 
11nm SW 
081515Z AUTO 00000KT 9SM CLR M03/M03 A3003 RMK AO2
KBVS 
19nm NE 
081515Z AUTO 03008KT 10SM CLR 02/M00 A3004 RMK A01
KAWO 
19nm E 
081513Z AUTO 01004KT 10SM FEW002 M02/M03 A3004 RMK AO2 FZRANO
TAF
KNUW 
10nm N 
0807/0907 10008KT 9999 VCSH SCT025 SCT030 BKN120 510009 530907 QNH3008INS TEMPO 0807/0810 12014KT BKN025 BKN035 OVC100 FM081000 VRB06KT 9999 FEW015 SCT030 SCT060 510009 530907 QNH2994INS TEMPO 0815/0820 BR BKN015 FM082100 VRB06KT 9999 SCT230 510009 530907 QNH2992INS BECMG 0901/0903 16016KT 9999 SCT020 BKN045 BKN130 510009 530909 QNH2990INS TEMPO 0903/0907 9000 BR BKN020 BKN040 SCT080 SCT150 T02/0813Z T09/0823Z FS30175
NOTAMs
Click for the latest NOTAMs
NOTAMs are issued by the DoD/FAA and will open in a separate window not controlled by AirNav.

 

 
 

Would you like to see your business listed on this page?

 If your business provides an interesting product or service to pilots, flight crews, aircraft, or users of the Coupeville Airpark, you should consider listing it here.  To start the listing process, click on the button below
 
Add a business
 

Other Pages about Coupeville Airpark

Update a link
 
Copyright © AirNav, LLC. All rights reserved. Privacy Policy  Contact